{"data":{"norad_id":56454,"epoch":"2026-09-20T13:04:42.491136Z","epoch_age_seconds":108307,"freshness":"FRESH","line1":"1 56454U 23064G   26263.54493624  .00000654  00000+0  62620-4 0  9999","line2":"2 56454  70.0014  13.1506 0003358 268.7229  91.3545 14.98339180184432","mean_motion":14.9833918,"eccentricity":0.0003358,"inclination_deg":70.0014,"raan_deg":13.1506,"arg_perigee_deg":268.7229,"mean_anomaly_deg":91.3545,"bstar":6.262e-5,"rev_number":18443,"period_min":96.106410298902,"perigee_km":569.69363745661,"apogee_km":574.36136793662,"semimajor_km":6950.1645026966,"source":"CELESTRAK","updated_at":"2026-09-21T09:00:33.442099Z"}}